PST,Max TemperatureF,Mean TemperatureF,Min TemperatureF,Max Dew PointF,MeanDew PointF,Min DewpointF,Max Humidity, Mean Humidity, Min Humidity, Max Sea Level PressureIn, Mean Sea Level PressureIn, Min Sea Level PressureIn, Max VisibilityMiles, Mean VisibilityMiles, Min VisibilityMiles, Max Wind SpeedMPH, Mean Wind SpeedMPH, Max Gust SpeedMPH,PrecipitationIn, CloudCover, Events, WindDirDegrees
2012-11-1,87,72,56,44,38,29,55,34,12,29.92,29.87,29.82,10,10,10,8,3,10,0.00,1,,223
2012-11-2,87,71,54,46,39,24,66,38,10,29.92,29.87,29.82,10,10,8,9,3,13,0.00,0,,6
2012-11-3,90,76,62,41,31,25,43,27,10,30.03,29.97,29.92,10,10,9,12,6,14,0.00,0,,321
2012-11-4,95,78,61,30,25,19,27,17,7,30.08,30.04,30.00,10,10,10,14,6,17,0.00,0,Rain,312
2012-11-5,96,82,67,33,27,23,22,15,8,30.07,30.02,29.97,10,10,10,12,5,16,0.00,0,,296
2012-11-6,93,81,68,42,34,28,23,18,13,30.04,29.98,29.92,10,10,10,12,6,14,0.00,0,,319
2012-11-7,91,76,61,44,39,33,48,31,14,29.97,29.89,29.83,10,10,10,9,2,14,0.00,0,,143
2012-11-8,78,68,58,52,47,40,49,41,32,29.88,29.80,29.75,10,10,9,23,5,28,T,3,Rain,319
2012-11-9,70,65,60,52,36,27,63,42,20,29.87,29.77,29.73,10,10,10,25,8,39,0.00,2,,44
2012-11-10,67,57,47,36,27,16,61,40,18,30.13,29.98,29.88,10,10,10,26,6,33,0.00,1,,321
2012-11-11,66,55,44,24,15,10,36,24,11,30.36,30.28,30.14,10,10,10,13,4,15,0.00,0,,293
2012-11-12,72,59,45,15,9,0,25,16,7,30.34,30.25,30.16,10,10,10,8,3,10,0.00,0,,292
2012-11-13,76,61,45,25,11,1,31,18,5,30.19,30.12,30.06,10,10,10,10,4,14,0.00,0,,353
2012-11-14,80,63,46,31,19,13,39,24,8,30.09,30.05,29.99,10,10,10,10,5,12,0.00,1,,350
2012-11-15,74,65,55,37,25,18,47,30,13,30.09,30.04,30.00,10,10,10,9,3,12,0.00,3,,341
2012-11-16,75,64,52,37,29,21,38,27,15,30.08,30.02,29.98,10,10,10,9,2,10,T,4,,131
2012-11-17,78,68,57,51,46,35,60,46,31,30.05,30.00,29.97,10,10,10,14,3,16,0.00,3,,313
2012-11-18,78,66,53,50,45,41,77,54,31,30.10,30.04,30.00,10,10,10,13,3,17,0.00,0,,284
2012-11-19,78,65,52,46,42,38,77,51,24,30.20,30.14,30.10,10,10,10,8,1,12,0.00,0,,52
2012-11-20,79,67,54,42,38,32,59,40,21,30.14,30.06,29.99,10,10,10,10,6,12,0.00,0,,337
2012-11-21,81,66,51,44,37,30,64,40,16,30.04,29.99,29.94,10,10,10,8,3,21,0.00,0,,73
2012-11-22,83,67,51,45,39,33,66,42,17,30.13,30.05,29.99,10,10,10,12,4,14,0.00,0,,320
2012-11-23,86,72,57,38,32,27,39,26,13,30.17,30.12,30.07,10,10,10,10,4,12,0.00,0,,321
2012-11-24,87,72,57,35,26,21,28,19,10,30.09,30.00,29.92,10,10,10,10,5,12,0.00,0,,341
2012-11-25,83,69,55,41,34,28,43,29,15,29.91,29.87,29.80,10,10,10,10,6,13,0.00,0,,357
2012-11-26,79,65,51,50,39,33,51,37,23,30.08,29.99,29.89,10,10,10,8,3,12,0.00,0,,28
2012-11-27,81,68,55,39,34,30,47,32,16,30.13,30.07,30.01,10,10,10,12,5,13,0.00,0,,340
2012-11-28,76,64,51,44,40,35,62,45,27,30.11,30.07,30.03,10,10,10,9,4,13,0.00,1,,335
2012-11-29,80,67,54,51,47,42,62,48,33,30.14,30.08,30.04,10,10,10,23,2,28,0.00,1,,297
2012-11-30,75,65,54,55,52,49,83,65,46,30.10,30.05,30.01,10,10,10,7,1,8,0.00,3,,219